Afton Municipal Airport, WY

6:41 PM MST on November 12, 2019 (GMT -0700)
Afton Municipal

Weather History for KAFO - September, 2019

Change the Weather History Date:

Monday, September 9, 2019

  Actual Average Record
Temperature  
Mean Temperature 52 °F -  
Max Temperature 62 °F 75 °F 80 °F (2017)
Min Temperature 41 °F 35 °F 26 °F (2016)
Degree Days  
Heating Degree Days 14    
Growing Degree Days 2 (Base 50)    
Moisture  
Dew Point 39 °F    
Average Humidity 67    
Maximum Humidity 100    
Minimum Humidity 34    
Precipitation  
Precipitation 0.00 in - - ()
Sea Level Pressure  
Sea Level Pressure 30.04 in    
Wind  
Wind Speed 5 mph ()    
Max Wind Speed 13 mph    
Max Gust Speed 17 mph    
Visibility 10.0 miles    
Events      
Averages and records for this station are not official NWS values.
T = Trace of Precipitation, MM = Missing Value Source: Averaged Metar Reports

Daily Weather History Graph

Daily Weather History Graph

Search for Another Location

Airport or City:

Astronomy

Sep. 09, 2019 Rise Set
Actual Time 6:56 AM MDT 7:44 PM MDT
Civil Twilight 6:28 AM MDT 8:13 PM MDT
Nautical Twilight 5:54 AM MDT 8:46 PM MDT
Astronomical Twilight 5:18 AM MDT 9:22 PM MDT
Moon 5:48 PM MDT (9/9) 2:24 AM MDT (9/9)
Length of Visible Light 13h 44m
Length of Day
12h 47m
Waxing Gibbous, 83% of the Moon is Illuminated
Sep 9
Waxing Gibbous
Sep 13
Full
Sep 21
Last Quarter
Sep 28
New
Oct 5
First Quarter

Hourly Weather History & Observations

Time (MDT) Temp. Windchill Dew Point Humidity Pressure Visibility Wind Dir Wind Speed Gust Speed Precip Events Conditions
12:15 AM 44.6 °F 40.2 °F 42.8 °F 93% 30.01 in 10.0 mi SW 8.1 mph - N/A   Overcast
12:35 AM 44.6 °F 41.4 °F 42.8 °F 93% 30.01 in 10.0 mi South 5.8 mph - N/A   Overcast
12:55 AM 46.4 °F 43.5 °F 42.8 °F 87% 30.00 in 10.0 mi SSW 5.8 mph - N/A   Overcast
1:15 AM 44.6 °F 40.2 °F 42.8 °F 93% 30.00 in 10.0 mi South 8.1 mph - N/A   Overcast
1:35 AM 44.6 °F 40.2 °F 42.8 °F 93% 30.02 in 10.0 mi South 8.1 mph - N/A   Overcast
1:55 AM 44.6 °F 40.7 °F 42.8 °F 93% 30.02 in 10.0 mi South 6.9 mph - N/A   Overcast
2:15 AM 44.6 °F 41.4 °F 42.8 °F 93% 30.02 in 10.0 mi South 5.8 mph - N/A   Overcast
2:35 AM 44.6 °F 43.1 °F 42.8 °F 93% 30.02 in 10.0 mi South 3.5 mph - N/A   Overcast
2:55 AM 46.4 °F 43.5 °F 42.8 °F 87% 30.02 in 10.0 mi South 5.8 mph - N/A   Overcast
3:15 AM 48.2 °F - 41.0 °F 76% 30.01 in 10.0 mi SSE 4.6 mph - N/A   Overcast
3:35 AM 46.4 °F 43.5 °F 42.8 °F 87% 30.02 in 10.0 mi South 5.8 mph - N/A   Overcast
3:55 AM 44.6 °F 41.4 °F 42.8 °F 93% 30.02 in 10.0 mi South 5.8 mph - N/A   Overcast
4:15 AM 42.8 °F 38.6 °F 41.0 °F 93% 30.02 in 10.0 mi South 6.9 mph - N/A   Mostly Cloudy
4:35 AM 42.8 °F 40.1 °F 41.0 °F 93% 30.03 in 10.0 mi SSW 4.6 mph - N/A   Mostly Cloudy
4:55 AM 42.8 °F 38.6 °F 41.0 °F 93% 30.03 in 10.0 mi South 6.9 mph - N/A   Scattered Clouds
5:15 AM 42.8 °F 39.3 °F 41.0 °F 93% 30.04 in 10.0 mi SW 5.8 mph - N/A   Mostly Cloudy
5:35 AM 41.0 °F 36.4 °F 41.0 °F 100% 30.04 in 10.0 mi South 6.9 mph - N/A   Overcast
5:55 AM 42.8 °F 40.1 °F 41.0 °F 93% 30.04 in 10.0 mi South 4.6 mph - N/A   Mostly Cloudy
6:15 AM 41.0 °F 36.4 °F 39.2 °F 93% 30.05 in 10.0 mi South 6.9 mph - N/A   Mostly Cloudy
6:35 AM 41.0 °F 34.7 °F 39.2 °F 93% 30.05 in 10.0 mi SSW 10.4 mph - N/A   Mostly Cloudy
6:55 AM 41.0 °F 34.7 °F 39.2 °F 93% 30.06 in 10.0 mi South 10.4 mph - N/A   Mostly Cloudy
7:15 AM 41.0 °F 35.2 °F 39.2 °F 93% 30.07 in 10.0 mi South 9.2 mph - N/A   Mostly Cloudy
7:35 AM 41.0 °F 35.2 °F 37.4 °F 87% 30.07 in 10.0 mi South 9.2 mph - N/A   Scattered Clouds
7:55 AM 41.0 °F 34.7 °F 37.4 °F 87% 30.07 in 10.0 mi South 10.4 mph - N/A   Clear
8:15 AM 41.0 °F - 37.4 °F 87% 30.08 in 10.0 mi Calm Calm - N/A   Clear
8:35 AM 44.6 °F - 41.0 °F 87% 30.08 in 10.0 mi Calm Calm - N/A   Clear
8:55 AM 46.4 °F 45.2 °F 41.0 °F 81% 30.08 in 10.0 mi East 3.5 mph - N/A   Clear
9:15 AM 50.0 °F - 41.0 °F 71% 30.08 in 10.0 mi Calm Calm - N/A   Clear
9:35 AM 53.6 °F - 37.4 °F 54% 30.08 in 10.0 mi NE 4.6 mph - N/A   Clear
9:55 AM 53.6 °F - 35.6 °F 51% 30.08 in 10.0 mi ESE 3.5 mph - N/A   Clear
10:15 AM 55.4 °F - 37.4 °F 51% 30.08 in 10.0 mi ESE 9.2 mph - N/A   Mostly Cloudy
10:35 AM 57.2 °F - 37.4 °F 48% 30.08 in 10.0 mi SSW 5.8 mph - N/A   Overcast
10:55 AM 55.4 °F - 37.4 °F 51% 30.08 in 10.0 mi SSW 4.6 mph - N/A   Overcast
11:15 AM 55.4 °F - 37.4 °F 51% 30.08 in 10.0 mi SW 5.8 mph - N/A   Mostly Cloudy
11:35 AM 55.4 °F - 37.4 °F 51% 30.08 in 10.0 mi NW 3.5 mph - N/A   Mostly Cloudy
11:55 AM 57.2 °F - 35.6 °F 44% 30.08 in 10.0 mi NW 3.5 mph - N/A   Overcast
12:15 PM 59.0 °F - 37.4 °F 45% 30.08 in 10.0 mi North 5.8 mph - N/A   Overcast
12:35 PM 57.2 °F - 35.6 °F 44% 30.08 in 10.0 mi Calm Calm - N/A   Overcast
12:55 PM 55.4 °F - 37.4 °F 51% 30.08 in 10.0 mi NW 5.8 mph - N/A   Overcast
1:15 PM 59.0 °F - 35.6 °F 42% 30.08 in 10.0 mi WNW 4.6 mph - N/A   Overcast
1:55 PM 59.0 °F - 33.8 °F 39% 30.07 in 10.0 mi West 12.7 mph 17.3 mph N/A   Overcast
2:15 PM 60.8 °F - 33.8 °F 36% 30.07 in 10.0 mi West 5.8 mph - N/A   Mostly Cloudy
2:35 PM 60.8 °F - 32.0 °F 34% 30.06 in 10.0 mi Calm Calm - N/A   Mostly Cloudy
2:55 PM 60.8 °F - 33.8 °F 36% 30.05 in 10.0 mi WNW 4.6 mph - N/A   Mostly Cloudy
3:15 PM 62.6 °F - 33.8 °F 34% 30.05 in 10.0 mi Calm Calm - N/A   Mostly Cloudy
3:35 PM 60.8 °F - 33.8 °F 36% 30.05 in 10.0 mi Calm Calm - N/A   Mostly Cloudy
3:55 PM 60.8 °F - 35.6 °F 39% 30.05 in 10.0 mi SW 6.9 mph - N/A   Mostly Cloudy
4:15 PM 60.8 °F - 33.8 °F 36% 30.04 in 10.0 mi WSW 4.6 mph - N/A   Mostly Cloudy
4:35 PM 60.8 °F - 33.8 °F 36% 30.04 in 10.0 mi West 3.5 mph - N/A   Mostly Cloudy
4:55 PM 62.6 °F - 35.6 °F 37% 30.04 in 10.0 mi SW 6.9 mph - N/A   Overcast
5:15 PM 62.6 °F - 35.6 °F 37% 30.04 in 10.0 mi SW 10.4 mph - N/A   Overcast
5:35 PM 62.6 °F - 33.8 °F 34% 30.03 in 10.0 mi WSW 4.6 mph - N/A   Mostly Cloudy
5:55 PM 60.8 °F - 35.6 °F 39% 30.03 in 10.0 mi West 4.6 mph - N/A   Scattered Clouds
6:15 PM 59.0 °F - 37.4 °F 45% 30.03 in 10.0 mi SW 4.6 mph - N/A   Clear
6:35 PM 59.0 °F - 41.0 °F 51% 30.03 in 10.0 mi SW 3.5 mph - N/A   Clear
6:55 PM 55.4 °F - 41.0 °F 58% 30.03 in 10.0 mi SSW 3.5 mph - N/A   Clear
7:15 PM 55.4 °F - 39.2 °F 54% 30.03 in 10.0 mi Calm Calm - N/A   Clear
7:35 PM 55.4 °F - 37.4 °F 51% 30.03 in 10.0 mi SE 3.5 mph - N/A   Clear
7:55 PM 53.6 °F - 39.2 °F 58% 30.03 in 10.0 mi ESE 3.5 mph - N/A   Clear
8:15 PM 53.6 °F - 37.4 °F 54% 30.03 in 10.0 mi North - - N/A   Clear
8:35 PM 53.6 °F - 35.6 °F 51% 30.03 in 10.0 mi North - - N/A   Clear
8:55 PM 46.4 °F - 41.0 °F 81% 30.04 in 10.0 mi North - - N/A   Clear
9:15 PM 50.0 °F - 39.2 °F 66% 30.04 in 10.0 mi South 5.8 mph - N/A   Clear
9:35 PM 48.2 °F - 37.4 °F 66% 30.03 in 10.0 mi SW 3.5 mph - N/A   Clear
9:55 PM 46.4 °F - 39.2 °F 76% 30.03 in 10.0 mi Calm Calm - N/A   Clear
10:15 PM 44.6 °F - 41.0 °F 87% 30.02 in 10.0 mi Calm Calm - N/A   Clear
10:35 PM 44.6 °F 42.2 °F 41.0 °F 87% 30.02 in 10.0 mi SSE 4.6 mph - N/A   Clear
10:55 PM 44.6 °F - 37.4 °F 76% 30.01 in 10.0 mi Calm Calm - N/A   Clear
11:15 PM 46.4 °F - 37.4 °F 71% 30.00 in 10.0 mi Calm Calm - N/A   Scattered Clouds
11:35 PM 46.4 °F - 37.4 °F 71% 30.01 in 10.0 mi Calm Calm - N/A   Scattered Clouds
11:55 PM 46.4 °F - 39.2 °F 76% 29.99 in 10.0 mi Calm Calm - N/A   Scattered Clouds